Find Starlink 31584

NORAD ID: 59862 Int'l Des: 2024-098 Owner: SPXS Country: US Constellation: starlink operational
LEOCIRCULAR

当前视图

正在加载3D地球...

About Starlink 31584

Starlink 31584 (NORAD 59862) is a starlink constellation satellite (v2 mini) launched May 24, 2024 by SPXS of US. It operates in LEO, CIRCULAR orbit with a mass of 730.00 kg.

即将过境

Passes for default location (London). Set your location on the main map for personalized predictions.

高度历史

Loading altitude history...

两行轨道根数

1 59862U 24098E 26230.29738450 -.00000518 00000-0 -92987-5 0 9990
2 59862 43.0006 85.1821 0001052 272.0714 88.0017 15.27575361126567
Epoch: Aug 18, 2026 • Age: 17 hours

当前状态

高度 489.9 km
远地点 / 近地点 N/A
速度 7.62 km/s
星下点 -27.95°S, 28.66°W
发射日期 May 24, 2024
运行时间 2.2 years
类型 internet

技术详情

分类 Payload
质量 730.00 kg
干质量 700.00 kg
总质量 730.00 kg
长度 0.30 m
直径 4.10 m
跨度 29.00 m
形状 Box + pan
制造商 SPXS
平台类型 Starlink V2M
阶段状态 In Orbit
所有者/国家 SPXS/US

Most Searched